Mayrhofen, Austria 16 day weather forecast

Slopes altitude range 630 m - 3250m

Number of lifts: 170 Pistes: 649km

In some cases the lift and piste totals shown are for the ski domain (e.g. Three Valleys) rather than individual resort (e.g. Courchevel)

Overview

The 16 day weather forecast is fully updated 4 times every day.

    • Thu 21 FEB 2019
    • Thu 21
    • -5C 0C
    • Fri 22 FEB 2019
    • Fri 22
    • -5C -3C
    • Sat 23 FEB 2019
    • Sat 23
    • -11C -2C
    • Sun 24 FEB 2019
    • Sun 24
    • -8C 0C
    • Mon 25 FEB 2019
    • Mon 25
    • -7C 1C
    • Tue 26 FEB 2019
    • Tue 26
    • -5C 2C
    • Wed 27 FEB 2019
    • Wed 27
    • -3C 3C
    • Thu 28 FEB 2019
    • Thu 28
    • -3C 4C
    • Fri 01 MAR 2019
    • Fri 01
    • -5C 2C
    • Sat 02 MAR 2019
    • Sat 02
    • -5C 1C
    • Sun 03 MAR 2019
    • Sun 03
    • -6C -3C
    • Mon 04 MAR 2019
    • Mon 04
    • -5C 4C
    • Tue 05 MAR 2019
    • Tue 05
    • -2C 1C
    • Wed 06 MAR 2019
    • Wed 06
    • -3C -1C
    • Thu 07 MAR 2019
    • Thu 07
    • -9C -7C
    • Fri 08 MAR 2019
    • Fri 08
    • -13C -12C

Date:

Time Type 0°C level Temp Chill Snow Cloud Speed Gust Dir Press
18:00 1486m 0°C 0_7 0cm 78% 7mph 7mph 1029mB
21:00 1066m -7°C -7_7 0cm 31% 7mph 8mph 1030mB
0:00 1209m -7°C -7_8 0cm 46% 8mph 8mph 1030mB
3:00 1397m -6°C -6_9 1cm 79% 9mph 11mph 1030mB
6:00 1488m -6°C -6_10 1cm 88% 10mph 12mph 1030mB
9:00 1670m -5°C -5_11 3cm 99% 11mph 15mph 1030mB
12:00 1753m -3°C -3_12 3cm 99% 12mph 16mph 1030mB
15:00 1726m -2°C -2_11 1cm 83% 11mph 14mph 1030mB
18:00 1386m -2°C -2_9 1cm 80% 9mph 12mph 1033mB
21:00 1217m -6°C -6_8 1cm 79% 8mph 9mph 1035mB
0:00 911m -8°C -8_7 0cm 70% 7mph 9mph 1037mB
3:00 591m -10°C -10_8 0cm 23% 8mph 9mph 1036mB
6:00 544m -11°C -11_9 0cm 12% 9mph 10mph 1037mB
9:00 1561m -11°C -11_9 0cm 0% 9mph 12mph 1036mB
12:00 1807m -2°C -2_10 0cm 0% 10mph 12mph 1035mB
15:00 1723m -2°C -2_8 0cm 16% 8mph 10mph 1034mB
18:00 847m -2°C -2_7 0cm 21% 7mph 8mph 1036mB
21:00 910m -9°C -9_7 0cm 0% 7mph 8mph 1037mB
0:00 1008m -9°C -9_7 0cm 0% 7mph 8mph 1037mB
3:00 1035m -8°C -8_7 0cm 0% 7mph 8mph 1036mB
6:00 1014m -8°C -8_8 0cm 0% 8mph 9mph 1037mB
9:00 1941m -8°C -8_8 0cm 0% 8mph 9mph 1036mB
12:00 2095m 0°C 0_8 0cm 0% 8mph 9mph 1035mB
15:00 2010m 0°C 0_8 0cm 0% 8mph 11mph 1034mB
18:00 1194m 0°C 0_8 0cm 0% 8mph 9mph 1036mB
21:00 1179m -7°C -7_8 0cm 0% 8mph 9mph 1038mB
0:00 1156m -7°C -7_8 0cm 0% 8mph 9mph 1038mB
3:00 1060m -7°C -7_7 0cm 0% 7mph 8mph 1038mB
6:00 1040m -7°C -7_6 0cm 4% 6mph 7mph 1039mB
9:00 1978m -7°C -7_4 0cm 0% 4mph 5mph 1038mB
12:00 2264m 1°C 1_4 0cm 1% 4mph 4mph 1036mB
15:00 2321m 1°C 1_3 0cm 7% 3mph 4mph 1034mB
18:00 1576m 1°C 1_4 0cm 7% 4mph 5mph 1036mB
21:00 1533m -4°C -4_5 0cm 25% 5mph 5mph 1037mB
0:00 1551m -4°C -4_5 0cm 57% 5mph 6mph 1036mB
3:00 1499m -4°C -4_6 0cm 11% 6mph 7mph 1035mB
6:00 1348m -5°C -5_7 0cm 16% 7mph 8mph 1035mB
9:00 2439m -5°C -5_8 0cm 75% 8mph 9mph 1033mB
12:00 2520m 2°C 2_7 0cm 83% 7mph 8mph 1031mB
15:00 2549m 2°C 2_7 0cm 50% 7mph 8mph 1030mB
18:00 1633m 2°C 2_7 0cm 48% 7mph 8mph 1032mB
21:00 1692m -4°C -4_7 0cm 58% 7mph 8mph 1032mB
0:00 1749m -4°C -4_7 0cm 63% 7mph 8mph 1031mB
3:00 1741m -3°C -3_7 0cm 6% 7mph 8mph 1029mB
6:00 1673m -3°C -3_7 0cm 5% 7mph 8mph 1029mB
9:00 2920m -3°C -3_6 0cm 0% 6mph 7mph 1027mB
12:00 3128m 3°C 3_3 0cm 2% 3mph 4mph 1025mB
15:00 3161m 3°C 3_2 0cm 10% 2mph 3mph 1024mB
18:00 2271m 3°C 3_4 0cm 10% 4mph 5mph 1026mB
21:00 2208m -1°C -1_5 0cm 0% 5mph 5mph 1026mB
0:00 1850m -2°C -2_4 0cm 0% 4mph 4mph 1025mB
3:00 1670m -3°C -3_1 0cm 0% 1mph 2mph 1024mB
6:00 1881m -3°C -3_2 0cm 0% 2mph 2mph 1024mB
9:00 3055m -3°C -3_3 0cm 27% 3mph 4mph 1022mB
12:00 3018m 4°C 4_5 0cm 25% 5mph 5mph 1021mB
15:00 2877m 4°C 4_5 0cm 58% 5mph 6mph 1020mB
18:00 2028m 4°C 4_6 0cm 55% 6mph 7mph 1023mB
21:00 1679m -3°C -3_7 0cm 55% 7mph 8mph 1024mB
0:00 1514m -4°C -4_7 0cm 41% 7mph 7mph 1025mB
3:00 1424m -5°C -5_6 0cm 2% 6mph 7mph 1024mB
6:00 1344m -5°C -5_6 0cm 2% 6mph 6mph 1025mB
9:00 2172m -5°C -5_4 0cm 87% 4mph 5mph 1024mB
12:00 2384m 2°C 2_2 0cm 89% 2mph 2mph 1022mB
15:00 2418m 2°C 2_2 0cm 94% 2mph 3mph 1021mB
18:00 1686m 2°C 2_3 0cm 95% 3mph 3mph 1023mB
21:00 1536m -4°C -4_3 0cm 90% 3mph 3mph 1024mB
0:00 1444m -5°C -5_2 0cm 84% 2mph 2mph 1024mB
3:00 1449m -5°C -5_3 0cm 78% 3mph 3mph 1022mB
6:00 1380m -5°C -5_4 0cm 80% 4mph 5mph 1022mB
9:00 2072m -5°C -5_6 0cm 90% 6mph 7mph 1020mB
12:00 2295m 1°C 1_6 0cm 92% 6mph 7mph 1017mB
15:00 2339m 2°C 2_5 0cm 99% 5mph 6mph 1015mB
18:00 1669m 2°C 2_8 0cm 73% 8mph 8mph 1016mB
21:00 1570m -4°C -4_7 0cm 99% 7mph 8mph 1015mB
0:00 1551m -4°C -4_9 0cm 94% 9mph 10mph 1015mB
3:00 1616m -4°C -4_8 2cm 100% 8mph 10mph 1015mB
6:00 1321m -6°C -6_6 2cm 100% 6mph 8mph 1017mB
9:00 1540m -6°C -6_9 1cm 85% 9mph 12mph 1018mB
12:00 1761m -3°C -3_8 0cm 44% 8mph 15mph 1018mB
Morning 0.0260417mm 0 1504m -5°C -5_5 1cm 58% 5mph 6mph 1023mB
Afternoon 0mm 0 2435m 4°C 4_14 0cm 92% 14mph 19mph 1015mB
Morning 0.03125mm 0 1932m -1°C -1_9 1cm 100% 9mph 13mph 1012mB
Afternoon 0.729167mm 0.0625 2073m 1°C 1_7 6cm 100% 7mph 10mph 1009mB
Morning 0.84375mm 0.5 1707m -3°C -3_8 7cm 96% 8mph 11mph 1005mB
Afternoon 0.557292mm 0.0625 1883m -1°C -1_8 4cm 80% 8mph 10mph 1006mB
Morning 0.0260417mm 0 962m -8°C -8_11 0cm 88% 11mph 16mph 1013mB
Afternoon 0.140625mm 0.0625 977m -7°C -7_17 1cm 100% 17mph 19mph 1018mB
Morning 0.197917mm 0.25 114m -12°C -12_14 2cm 100% 14mph 21mph 1028mB
Afternoon 0.28125mm 0.5 224m -12°C -12_18 4cm 100% 18mph 23mph 1032mB
Morning 0.140625mm 0.0625 0m -20°C -20_1 1cm 95% 1mph 2mph 1039mB
Afternoon 0mm 0 1777m -2°C -2_4 0cm 39% 4mph 4mph 1029mB

16 day outlook at a glance

Forecast issued: 21/02/2019 18:42:46

Chat

Your comments and questions. In a resort? Let us know what it's like!


Characters left 250

For terms and conditions see Readers Comments on the Cookie and privacy policy page.